Location: Unspecified
(0.0000°N, 0.0000°E)
Time: 14:14:09
(UTC+00:00)

TIMED - Pass Details

Date: 29 July 2021
Orbit: 602 x 603 km, 74.1° (Epoch: 20 September)

Event Time Altitude Azimuth Distance (km) Brightness Sun altitude
Rises 04:21:45 0° 8° (N) 2,836 8.3 -24.7°
Reaches altitude 10° 04:24:16 10° 22° (NNE) 1,937 7.6 -24.1°
Maximum altitude 04:27:51 25° 78° (ENE) 1,214 6.8 -23.3°
Drops below altitude 10° 04:31:26 10° 134° (SE) 1,945 7.4 -22.4°
Sets 04:33:58 0° 147° (SSE) 2,851 8.1 -21.9°
